Regional Weather Roundup
Issued by NWS

Home | Current Version | Previous Version | Graphics & Text | Print | Product List | Glossary On
Versions: 1 2 3 4 5 6 7 8 9 10 11 12 13 14 15 16 17 18 19 20 21 22 23 24 25 26 27 28 29 30 31 32 33 34 35 36 37 38 39 40 41 42 43 44 45 46 47 48 49 50
000
ASUS43 KOAX 252302
RWRNE

WEATHER ROUNDUP FOR NEBRASKA
NATIONAL WEATHER SERVICE OMAHA NE
600 PM CDT TUE APR 25 2017

NOTES: SATELLITE DATA IS BEING USED TO AUGMENT CLOUD COVER ABOVE
       12000 FEET.
       "FAIR" INDICATES FEW OR NO CLOUDS BELOW 12,000 FEET WITH NO
       SIGNIFICANT WEATHER AND/OR OBSTRUCTIONS TO VISIBILITY.

  * THESE STATIONS DO NOT REPORT WEATHER SUCH AS RAIN...SNOW OR FOG.

NEZ001>004-019>022-054>056-260000-
NEBRASKA PANHANDLE

CITY           SKY/WX    TMP DP  RH WIND       PRES   REMARKS
SCOTTSBLUFF    CLOUDY    43  34  70 N18       29.70S
ALLIANCE       CLOUDY    36  30  79 N21       29.71R WCI  25
CHADRON        LGT SNOW  33  28  81 NE16      29.79R WCI  23
KIMBALL        CLOUDY    44  39  82 N22       29.65R
SIDNEY         CLOUDY    44  37  76 NE21G29   29.65R
$$

NEZ057>060-069>072-079>082-260000-
SOUTHWEST NEBRASKA

CITY           SKY/WX    TMP DP  RH WIND       PRES   REMARKS
NORTH PLATTE   CLOUDY    44  36  73 N17G29    29.65R
IMPERIAL       CLOUDY    51  41  68 NE20      29.61R
LEXINGTON      CLOUDY    42  37  82 N18       29.64R
MCCOOK         CLOUDY    50  42  74 NE15      29.60R
OGALLALA       CLOUDY    47  38  71 NE17G23   29.66R
$$

NEZ005>010-023>029-035>040-094-260000-
NORTH CENTRAL NEBRASKA

CITY           SKY/WX    TMP DP  RH WIND       PRES   REMARKS
VALENTINE      CLOUDY    36  28  73 N17       29.75R WCI  26
AINSWORTH      CLOUDY    34  33  94 N18G25    29.72R WCI  23
BROKEN BOW     CLOUDY    38  34  85 N21       29.65S WCI  28
O`NEILL        CLOUDY    38  34  84 N16G23    29.70R WCI  29
ORD            CLOUDY    39  34  82 N20G28    29.65S WCI  29
THEDFORD       CLOUDY    37  32  82 N14G21    29.71R WCI  29
$$

NEZ041-046>049-061>064-073>077-083>087-260000-
SOUTH CENTRAL NEBRASKA

CITY           SKY/WX    TMP DP  RH WIND       PRES   REMARKS
GRAND ISLAND   CLOUDY    40  38  93 N20G25    29.63R WCI  30
AURORA         CLOUDY    40  38  92 N24       29.61R WCI  30
HASTINGS       CLOUDY    41  37  86 N24G31    29.61R
HEBRON         CLOUDY    45  38  76 N20       29.58R
HOLDREGE       CLOUDY    42  39  88 N20G25    29.61R
KEARNEY *      CLOUDY    39  36  87 N22       29.62F WCI  29
YORK           CLOUDY    41  37  87 N17G25    29.60R
$$

NEZ011>018-030>034-042>045-260000-
NORTHEAST NEBRASKA

CITY           SKY/WX    TMP DP  RH WIND       PRES   REMARKS
NORFOLK        LGT RAIN  40  37  89 N21       29.60R WCI  30
ALBION         DRIZZLE   40  37  87 N17G24    29.64R WCI  32
BLAIR          DRIZZLE   45  42  88 N21G28    29.53S
FREMONT        DRIZZLE   44  43  95 NW7G18    29.57R
TEKAMAH        LGT RAIN  45  41  86 N17       29.56R FOG
WAYNE          CLOUDY    42  42  99 N16G23    29.61R
$$

NEZ050>053-065>068-078-088>093-260000-
SOUTHEAST NEBRASKA

CITY           SKY/WX    TMP DP  RH WIND       PRES   REMARKS
LINCOLN        CLOUDY    47  40  76 N20       29.57R
OMAHA EPPLEY   LGT RAIN  46  42  86 NW16G22   29.52R FOG
BEATRICE       CLOUDY    48  42  81 N17G23    29.53R
FALLS CITY     CLOUDY    56  46  69 N13       29.46R
NEBRASKA CITY  CLOUDY    51  41  69 N17       29.50R
PLATTSMOUTH    CLOUDY    48  41  79 NW16      29.51R
$$

NEZ044-045-051>053-067-260000-
OMAHA AREA

CITY           SKY/WX    TMP DP  RH WIND       PRES   REMARKS
OMAHA EPPLEY   LGT RAIN  46  42  86 NW16G22   29.52R FOG
BLAIR          DRIZZLE   45  42  88 N21G28    29.53S
FREMONT        DRIZZLE   44  43  95 NW7G18    29.57R
MILLARD        CLOUDY    48  44  84 NW14      29.54R
OFFUTT AFB     CLOUDY    47  43  87 N13G22    29.52R
PLATTSMOUTH    CLOUDY    48  41  79 NW16      29.51R
WAHOO          CLOUDY    44  40  85 N20G25    29.56R FOG
$$




USA.gov is the U.S. government's official web portal to all federal, state and local government web resources and services.